Hourly Data Report for June 08, 2021

ATIKOKAN (AUT)
ONTARIO
Current Station Operator: ECCC - MSC

48°45'40.000" N
91°37'41.000" W
389.30 m
6020LPQ
71747
WCH

Download Data

Hourly Data (June 2021)
Hourly Data Report for June 8, 2021
TIME
LST
Temp Definition
°C
Dew Point Definition
°C
Rel Hum Definition
%
Precip. Amount Definition
mm

Wind Dir Definition
10's deg

Wind Spd Definition
km/h
Visibility Definition
km
Stn Press Definition
kPa
Hmdx Definition


Wind Chill Definition


Weather Definition


00:00 13.8 12.2 90 0.0   0   96.70     LegendNANA
01:00 14.1 12.0 88 0.0 0 1   96.70     LegendNANA
02:00 15.6 13.2 85 0.0 0 1   96.64     LegendNANA
03:00 16.8 12.5 76 0.0 17 1   96.71     LegendNANA
04:00 16.8 12.6 76 0.0 23 4   96.88     LegendNANA
05:00 17.6 13.0 74 0.1 21 5   97.01     LegendNANA
06:00 16.9 14.1 84 0.0 6 6   96.87     LegendNANA
07:00 19.8 15.4 76 0.0 4 6   96.88     LegendNANA
08:00 21.6 15.3 67 0.0 6 6   96.87 26   LegendNANA
09:00 23.2 14.8 59 0.0 12 4   96.91 27   LegendNANA
10:00 24.9 15.1 54 0.0 9 9   96.95 29   LegendNANA
11:00 26.4 15.0 50 0.0 11 5   97.04 30   LegendNANA
12:00 27.1 15.5 49 0.0 11 5   97.06 31   LegendNANA
13:00 27.6 15.5 48 0.0 19 6   97.07 32   LegendNANA
14:00 28.5 16.0 47 0.0 5 3   97.10 33   LegendNANA
15:00 28.8 15.1 43 0.0 10 4   97.11 33   LegendNANA
16:00 29.0 14.6 42 0.0 14 2   97.11 33   LegendNANA
17:00 28.7 15.2 44 0.0 35 6   97.09 33   LegendNANA
18:00 28.0 13.8 42 0.0 4 5   97.05 31   LegendNANA
19:00 26.1 13.1 45 0.0 3 3   97.12 29   LegendNANA
20:00 21.3 14.9 67 0.0   0   97.17 25   LegendNANA
21:00 18.8 15.1 79 0.0 0 1   97.22     LegendNANA
22:00 17.4 14.8 85 0.0   0   97.26     LegendNANA
23:00 17.1 15.1 88 0.0 6 4   97.30     LegendNANA

Notes on Data Quality.

Legend

  • E = Estimated
  • M = Missing
  • NA = Not Available*
  • [empty] = Indicates an unobserved value
Date modified: